Weather History for Meadow Lake, CO

Change the Weather History Date:

Sunday, December 22, 2013

  Actual Average (KCOS) Record (KCOS)
Temperature  
Mean Temperature 21 °F 29 °F  
Max Temperature 32 °F 42 °F 69 °F (1955)
Min Temperature 10 °F 17 °F -24 °F (1990)
Degree Days  
Heating Degree Days 44 36  
Month to date heating degree days 774  
Since 1 July heating degree days 2255  
Cooling Degree Days 0 0  
Month to date cooling degree days 0  
Year to date cooling degree days 455  
Moisture  
Dew Point 13 °F    
Average Humidity 73    
Maximum Humidity 97    
Minimum Humidity 39    
Precipitation  
Precipitation 0.00 in 0.01 in 0.27 in (2009)
Month to date precipitation 0.26  
Year to date precipitation 16.46  
Snow  
Snow 0.00 in 0.20 in 3.90 in (1977)
Month to date snowfall 4.2  
Since 1 July snowfall 12.0  
Snow Depth -    
Sea Level Pressure  
Sea Level Pressure 29.97 in    
Wind  
Wind Speed 8 mph (NNW)    
Max Wind Speed 14 mph    
Max Gust Speed 20 mph    
Visibility 10 miles    
Events      
T = Trace of Precipitation, MM = Missing Value Source: NWS Daily Summary

Daily Weather History Graph

Daily Weather History Graph

Search for Another Location

Airport:

Trip Planner

Search our weather history database for the weather conditions in past years. The results will help you decide how hot, cold, wet, or windy it might be!

Date:

Astronomy

Dec. 22, 2013 Rise Set
Actual Time 7:14 AM MST 4:40 PM MST
Civil Twilight 6:44 AM MST 5:10 PM MST
Nautical Twilight 6:10 AM MST 5:43 PM MST
Astronomical Twilight 5:37 AM MST 6:16 PM MST
Moon 9:52 PM MST (12/22) 10:13 AM MST (12/22)
Length of Visible Light 10h 26m
Length of Day
9h 26m
Waning Gibbous, 76% of the Moon is Illuminated
Dec 22
Waning Gibbous
Dec 25
Last Quarter
Jan 1
New
Jan 7
First Quarter
Jan 15
Full

Hourly Weather History & Observations

Time (MST) Temp. Windchill Dew Point Humidity Pressure Visibility Wind Dir Wind Speed Gust Speed Precip Events Conditions
12:12 AM 21.0 °F 11.4 °F 15.8 °F 80% 29.82 in 10.0 mi North 8.1 mph - N/A   Overcast
12:32 AM 19.9 °F 9.3 °F 15.8 °F 84% 29.82 in 10.0 mi North 9.2 mph - N/A   Mostly Cloudy
12:52 AM 19.8 °F 9.9 °F 15.6 °F 84% 29.83 in 10.0 mi North 8.1 mph - N/A   Mostly Cloudy
1:12 AM 19.0 °F - 15.4 °F 86% 29.84 in 10.0 mi North - - N/A   Mostly Cloudy
1:32 AM 19.4 °F - 16.5 °F 89% 29.86 in 10.0 mi North - - N/A   Mostly Cloudy
1:52 AM 19.4 °F - 16.7 °F 89% 29.86 in 10.0 mi North - - N/A   Mostly Cloudy
2:12 AM 18.5 °F 7.5 °F 15.8 °F 89% 29.88 in 10.0 mi North 9.2 mph - N/A   Scattered Clouds
2:32 AM 18.1 °F 8.9 °F 14.9 °F 87% 29.88 in 10.0 mi North 6.9 mph - N/A   Clear
2:52 AM 18.1 °F - 14.9 °F 87% 29.89 in 10.0 mi North - - N/A   Clear
3:12 AM 15.6 °F 10.0 °F 13.1 °F 90% 29.90 in 10.0 mi NNW 3.5 mph - N/A   Clear
3:32 AM 16.2 °F - 13.3 °F 88% 29.91 in 10.0 mi North - - N/A   Clear
3:52 AM 15.1 °F - 12.9 °F 91% 29.92 in 10.0 mi North - - N/A   Clear
4:12 AM 17.4 °F - 14.9 °F 90% 29.92 in 10.0 mi North - - N/A   Scattered Clouds
4:32 AM 14.7 °F - 12.4 °F 90% 29.92 in 10.0 mi North - - N/A   Scattered Clouds
4:52 AM 12.7 °F - 10.4 °F 90% 29.93 in 10.0 mi North - - N/A   Scattered Clouds
5:12 AM 12.4 °F - 10.6 °F 92% 29.93 in 10.0 mi North - - N/A   Clear
5:32 AM 12.4 °F - 10.6 °F 92% 29.94 in 10.0 mi North - - N/A   Clear
5:52 AM 11.8 °F - 9.7 °F 91% 29.95 in 10.0 mi North - - N/A   Clear
6:12 AM 10.9 °F - 8.6 °F 90% 29.95 in 10.0 mi North - - N/A   Scattered Clouds
6:32 AM 11.8 °F - 9.9 °F 92% 29.96 in 10.0 mi North - - N/A   Clear
6:52 AM 11.5 °F - 9.1 °F 90% 29.96 in 10.0 mi North - - N/A   Clear
7:12 AM 11.8 °F - 10.0 °F 92% 29.96 in 10.0 mi North - - N/A   Clear
7:32 AM 12.9 °F - 10.9 °F 92% 29.97 in 10.0 mi North - - N/A   Clear
7:52 AM 13.1 °F - 11.3 °F 93% 29.98 in 10.0 mi North - - N/A   Mostly Cloudy
8:12 AM 19.0 °F - 17.8 °F 95% 29.98 in 5.0 mi North - - N/A   Overcast
8:32 AM 19.2 °F - 18.1 °F 96% 29.99 in 4.0 mi North - - N/A   Overcast
8:52 AM 19.9 °F - 19.2 °F 97% 30.00 in 2.0 mi North - - N/A   Overcast
9:12 AM 20.5 °F - 19.6 °F 96% 30.01 in 5.0 mi North - - N/A   Overcast
9:32 AM 20.8 °F - 19.9 °F 96% 30.01 in 5.0 mi North - - N/A   Overcast
9:52 AM 21.0 °F - 20.1 °F 96% 30.02 in 5.0 mi North - - N/A   Overcast
10:12 AM 21.6 °F - 20.3 °F 95% 30.02 in 7.0 mi North - - N/A   Overcast
10:32 AM 25.3 °F - 21.2 °F 84% 30.02 in 10.0 mi North - - N/A   Overcast
10:52 AM 25.9 °F - 18.7 °F 74% 30.02 in 10.0 mi North - - N/A   Mostly Cloudy
11:12 AM 25.2 °F - 18.0 °F 74% 30.00 in 10.0 mi North - - N/A   Mostly Cloudy
11:32 AM 26.8 °F - 16.5 °F 65% 30.00 in 10.0 mi North - - N/A   Mostly Cloudy
11:52 AM 28.2 °F - 16.5 °F 62% 29.98 in 10.0 mi North - - N/A   Scattered Clouds
12:12 PM 29.3 °F - 16.3 °F 58% 29.98 in 10.0 mi North - - N/A   Clear
12:32 PM 29.5 °F - 15.4 °F 56% 29.96 in 10.0 mi North - - N/A   Clear
12:52 PM 30.4 °F - 14.0 °F 51% 29.95 in 10.0 mi North - - N/A   Clear
1:12 PM 30.9 °F 21.7 °F 14.7 °F 51% 29.95 in 10.0 mi South 11.5 mph 16.1 mph N/A   Clear
1:32 PM 32.0 °F 24.2 °F 14.9 °F 49% 29.94 in 10.0 mi South 9.2 mph 18.4 mph N/A   Clear
1:52 PM 32.0 °F 24.2 °F 14.4 °F 48% 29.94 in 10.0 mi South 9.2 mph - N/A   Clear
2:12 PM 32.0 °F 24.2 °F 12.7 °F 45% 29.94 in 10.0 mi South 9.2 mph 17.3 mph N/A   Clear
2:32 PM 32.0 °F 23.6 °F 11.5 °F 43% 29.94 in 10.0 mi SSE 10.4 mph - N/A   Clear
2:52 PM 32.0 °F 24.8 °F 11.1 °F 42% 29.94 in 10.0 mi South 8.1 mph - N/A   Clear
3:12 PM 32.7 °F - 11.1 °F 41% 29.95 in 10.0 mi North - - N/A   Scattered Clouds
3:32 PM 32.9 °F - 10.4 °F 39% 29.95 in 10.0 mi North - - N/A   Scattered Clouds
3:52 PM 31.8 °F - 9.9 °F 40% 29.97 in 10.0 mi North - - N/A   Clear
4:12 PM 29.7 °F - 10.4 °F 45% 29.97 in 10.0 mi North - - N/A   Clear
4:32 PM 26.6 °F - 10.2 °F 50% 29.98 in 10.0 mi North - - N/A   Clear
4:52 PM 24.4 °F - 10.2 °F 55% 29.99 in 10.0 mi North - - N/A   Clear
5:12 PM 26.2 °F - 11.3 °F 53% 29.99 in 10.0 mi North - - N/A   Clear
5:32 PM 22.3 °F - 10.6 °F 61% 29.99 in 10.0 mi North - - N/A   Clear
5:52 PM 23.4 °F - 11.3 °F 60% 30.00 in 10.0 mi North - - N/A   Clear
6:12 PM 25.2 °F 20.9 °F 10.6 °F 54% 30.00 in 10.0 mi NNW 3.5 mph - N/A   Clear
6:32 PM 18.5 °F - 10.6 °F 71% 30.00 in 10.0 mi North - - N/A   Clear
6:52 PM 19.8 °F - 10.6 °F 68% 30.01 in 10.0 mi North - - N/A   Clear
7:12 PM 20.3 °F - 11.5 °F 69% 30.02 in 10.0 mi North - - N/A   Clear
7:32 PM 17.4 °F - 9.7 °F 72% 30.02 in 10.0 mi North - - N/A   Clear
7:52 PM 16.2 °F - 10.0 °F 77% 30.03 in 10.0 mi North - - N/A   Clear
8:12 PM 15.6 °F - 9.5 °F 77% 30.04 in 10.0 mi North - - N/A   Clear
8:32 PM 16.2 °F 9.0 °F 10.0 °F 77% 30.04 in 10.0 mi North 4.6 mph - N/A   Clear
8:52 PM 16.7 °F - 10.0 °F 75% 30.04 in 10.0 mi North - - N/A   Clear
9:12 PM 16.5 °F - 9.3 °F 73% 30.04 in 10.0 mi North - - N/A   Clear
9:32 PM 21.9 °F 12.5 °F 8.1 °F 55% 30.05 in 10.0 mi NW 8.1 mph - N/A   Clear
9:52 PM 21.4 °F 11.9 °F 7.2 °F 54% 30.05 in 10.0 mi NW 8.1 mph - N/A   Clear
10:12 PM 19.4 °F 10.4 °F 7.3 °F 60% 30.06 in 10.0 mi NNW 6.9 mph - N/A   Clear
10:32 PM 21.9 °F 11.7 °F 7.0 °F 53% 30.06 in 10.0 mi NW 9.2 mph - N/A   Clear
10:52 PM 23.2 °F 14.1 °F 6.6 °F 49% 30.08 in 10.0 mi NW 8.1 mph - N/A   Clear
11:12 PM 23.4 °F - 6.6 °F 49% 30.09 in 10.0 mi North - - N/A   Scattered Clouds
11:32 PM 21.7 °F 10.2 °F 12.4 °F 67% 30.10 in 10.0 mi North 11.5 mph - N/A   Scattered Clouds
11:52 PM 20.1 °F 6.9 °F 15.8 °F 83% 30.10 in 10.0 mi North 13.8 mph 19.6 mph N/A   Scattered Clouds